Location: Allonne
(49.4086°N, 2.1143°E)
Time: 15:26:08
(UTC+00:00)

DMSP B5D2-2 - Pass Details

Date: 09 August 2024
Orbit: 787 x 802 km, 98.3° (Epoch: 09 September)

Event Time Altitude Azimuth Distance (km) Brightness Sun altitude
Rises 03:32:45 0° 169° (S) 3,275 7.0 -9.4°
Reaches altitude 10° 03:35:04 10° 171° (S) 2,348 6.2 -9.1°
Maximum altitude 03:40:15 74° 257° (WSW) 825 4.0 -8.4°
Drops below altitude 10° 03:45:28 10° 342° (NNW) 2,361 6.8 -7.7°
Sets 03:47:49 0° 345° (NNW) 3,294 7.6 -7.4°
